[[{"header":{"parameterUnit":"m.s-1","parameterCategory":1,"la1":30.2991,"la2":30.254,"lo1":-89.0895,"lo2":-89.0444,"dy":0.0017,"dx":0.0017,"nx":28,"ny":28,"refTime":"2024-04-01T21:00:00:Z","depth":0,"parameterNumber":2,"parameterNumberName":"U-component_of_WINDS"},"data":[0,0,0,0,0,0,0,0,0,0,0,0,0,0,0,0,0,0,0,0,0,0,0,0,0,0,0,0,0,0,0,0,0,0,0,0,0,0,0,0,0,0,0,0,0,0,0,0,0,0,0,0,0,0,0,0,0,0,0.353,0.353,0,0.3476,0.3476,0.3475,0.3415,0.3414,0.3413,0.3412,0.3358,0.3357,0.3356,0,0,0,0,0,0,0,0,0,0,0,0,0,0.3582,0.3582,0.353,0.353,0.3529,0.3476,0.3476,0.3475,0.3415,0.3414,0.3413,0.3412,0.3358,0.3357,0.3356,0,0,0,0,0,0,0,0,0,0,0,0,0,0.3547,0.3581,0.353,0.3493,0.3489,0.3476,0.3476,0.3475,0.3415,0.3414,0.3412,0.3411,0.3358,0.3357,0.3356,0.3377,0,0,0.3353,0.3353,0,0,0,0,0,0,0,0,0.3549,0.3545,0.3499,0.3495,0.3491,0.3451,0.3474,0.3442,0.3415,0.3443,0.3412,0.3411,0.339,0.3386,0.3379,0.3374,0.3372,0.3353,0.3353,0.3352,0.3352,0,0,0,0,0,0,0,0.3552,0.3547,0.3509,0.3498,0.3493,0.3479,0.3472,0.3467,0.3425,0.3441,0.3436,0.343,0.3387,0.338,0.3377,0.3371,0.3353,0.3352,0.3352,0.3351,0.3381,0.3383,0,0,0,0,0,0,0.356,0.355,0.3511,0.3507,0.3517,0.3479,0.3472,0.3465,0.3424,0.3417,0.3432,0.3428,0.3382,0.3378,0.3375,0.3397,0.3352,0.3351,0.3351,0.338,0.3382,0.3383,0,0,0,0,0,0,0.3561,0.3557,0.3513,0.3527,0.352,0.3479,0.3472,0.3465,0.3457,0.3418,0.341,0.3432,0.3381,0.3376,0.3377,0.3394,0.3351,0.335,0.3378,0.3381,0.3382,0.3442,0,0,0,0,0,0,0.3563,0.3558,0.3565,0.3528,0.352,0.3516,0.3473,0.3465,0.3456,0.345,0.3416,0.3409,0.338,0.3379,0.3376,0.3392,0.3349,0.3377,0.3379,0.3382,0.3438,0.3446,0.3452,0,0,0,0,0,0.3565,0.3584,0.3566,0.3561,0.3528,0.3517,0.3512,0.3478,0.3457,0.3465,0.3439,0.341,0.3393,0.3379,0.3376,0.3392,0.3376,0.3379,0.3382,0.3435,0.3444,0.3452,0,0,0,0,0,0,0.3625,0.3578,0.3558,0.3565,0.3545,0.3507,0.3515,0.3489,0.3474,0.347,0.3428,0.3421,0.3427,0.3409,0.3395,0.341,0.338,0.3382,0.3422,0.343,0.3437,0.3441,0.3349,0,0,0,0,0,0.3639,0.3633,0.3593,0.3603,0.3594,0.3557,0.355,0.3525,0.3503,0.3495,0.3469,0.3449,0.3439,0.3433,0.3422,0.3435,0.3427,0.3444,0.3451,0.3457,0.346,0.3466,0.3474,0.3393,0.3393,0.3393,0,0,0.3668,0.3642,0.3641,0.3615,0.3596,0.3592,0.355,0.3547,0.3543,0.3494,0.3493,0.3474,0.3449,0.3456,0.3458,0.3441,0.348,0.3461,0.3466,0.3466,0.347,0.3478,0.3485,0.3395,0.3395,0.3395,0,0,0.3718,0.3698,0.3705,0.3687,0.366,0.3634,0.3636,0.3601,0.3586,0.3585,0.3548,0.3543,0.3526,0.351,0.35,0.3544,0.3517,0.3541,0.3578,0.3585,0.3591,0.3596,0.3613,0.362,0.3544,0.3544,0.3544,0,0.3758,0.3749,0.3712,0.3711,0.3701,0.3656,0.3663,0.3647,0.3618,0.3612,0.3594,0.3573,0.3552,0.3555,0.3566,0.3559,0.356,0.3546,0.3593,0.3598,0.3603,0.3618,0.3624,0.3548,0.3547,0.3547,0.3547,0,0.38,0.3795,0.3803,0.3776,0.3767,0.377,0.3733,0.3728,0.3704,0.368,0.3679,0.3653,0.3636,0.3635,0.3611,0.3634,0.3625,0.3601,0.357,0.3614,0.3628,0.3634,0.3552,0.3551,0.355,0.3549,0,0,0.3888,0.3839,0.3843,0.383,0.3797,0.3792,0.3793,0.3776,0.3773,0.3754,0.3754,0.3741,0.3718,0.3707,0.368,0.3686,0.3724,0.3661,0.366,0.3674,0.3749,0.3768,0.3776,0.3705,0.3706,0.3707,0.3751,0,0.3933,0.3933,0.3898,0.3907,0.3902,0.3859,0.386,0.384,0.3818,0.3811,0.3786,0.3778,0.3748,0.374,0.3744,0.3719,0.3738,0.3715,0.3706,0.3706,0.3715,0.3783,0.3803,0.3847,0.3756,0.3757,0.3758,0,0.3987,0.3971,0.398,0.3946,0.3942,0.3944,0.3926,0.3919,0.3895,0.3879,0.3866,0.3836,0.3835,0.3805,0.3803,0.3787,0.3781,0.3768,0.3769,0.3768,0.3736,0.3785,0.3859,0.3867,0.3766,0.3765,0.3765,0,0.4051,0.4032,0.4035,0.4025,0.3985,0.3988,0.3971,0.3946,0.3938,0.3922,0.3916,0.39,0.3892,0.388,0.3847,0.3828,0.385,0.3817,0.3837,0.3838,0.3844,0.3844,0.392,0.3839,0.3838,0.3838,0.3838,0,0.4106,0.4113,0.4063,0.4065,0.4072,0.4032,0.404,0.402,0.3998,0.3995,0.3956,0.3955,0.391,0.3904,0.3878,0.3881,0.3877,0.3864,0.3857,0.3868,0.387,0.3865,0.3861,0.384,0.384,0.3839,0.3839,0,0.418,0.4146,0.4147,0.4109,0.41,0.4107,0.4075,0.4075,0.4051,0.4048,0.4045,0.4006,0.3996,0.3962,0.3944,0.3926,0.3938,0.3924,0.3946,0.3942,0.3964,0.3963,0.404,0.4049,0.3961,0.3962,0.3962,0,0.4218,0.4222,0.4186,0.4181,0.4167,0.416,0.4151,0.4112,0.4105,0.4078,0.4082,0.4069,0.4057,0.4043,0.4014,0.3999,0.3986,0.4014,0.3983,0.3994,0.3987,0.3988,0.3989,0.4021,0.4022,0.4023,0.4024,0,0.4289,0.4272,0.4262,0.4246,0.4237,0.4222,0.4205,0.4204,0.416,0.4154,0.4144,0.4134,0.4115,0.4103,0.4084,0.4067,0.4039,0.4033,0.4037,0.4049,0.4062,0.4056,0.3965,0.4032,0.4031,0.403,0.403,0.403,0.4347,0.4349,0.4324,0.4313,0.4296,0.4281,0.428,0.4255,0.4246,0.4228,0.4205,0.4198,0.4173,0.4145,0.413,0.4124,0.4108,0.4114,0.4115,0.4118,0.4123,0.4062,0.412,0.412,0.412,0.4119,0.4119,0,0.4417,0.4398,0.4389,0.4367,0.4359,0.4332,0.4312,0.4307,0.4301,0.4281,0.4269,0.4258,0.4246,0.4215,0.42,0.4201,0.4187,0.4198,0.4199,0.4195,0.4138,0.4137,0.421,0.421,0.421,0.421,0.421,0.421,0.4452,0.4455,0.4436,0.443,0.4411,0.4403,0.4394,0.438,0.4364,0.4353,0.4343,0.4323,0.4299,0.4282,0.427,0.4261,0.4258,0.4273,0.426,0.4208,0.4199,0.4191,0.4189,0.4273,0.4273,0.4318,0.4319,0.4319]},{"header":{"parameterUnit":"m.s-1","parameterCategory":1,"la1":30.2991,"la2":30.254,"lo1":-89.0895,"lo2":-89.0444,"dy":0.0017,"dx":0.0017,"nx":28,"ny":28,"refTime":"2024-04-01T21:00:00:Z","depth":0,"parameterNumber":3,"parameterNumberName":"V-component_of_WINDS"},"data":[0,0,0,0,0,0,0,0,0,0,0,0,0,0,0,0,0,0,0,0,0,0,0,0,0,0,0,0,0,0,0,0,0,0,0,0,0,0,0,0,0,0,0,0,0,0,0,0,0,0,0,0,0,0,0,0,0,0,5.7849,5.7852,0,5.8046,5.8048,5.805,5.8067,5.8065,5.8063,5.8061,5.826,5.8267,5.8274,0,0,0,0,0,0,0,0,0,0,0,0,0,5.7487,5.7493,5.7849,5.7852,5.7854,5.8045,5.8048,5.8051,5.8068,5.8065,5.8063,5.806,5.8257,5.8266,5.8275,0,0,0,0,0,0,0,0,0,0,0,0,0,5.766,5.7495,5.7849,5.7886,5.7891,5.8045,5.8048,5.8051,5.8068,5.8065,5.8062,5.8059,5.8255,5.8265,5.8276,5.8406,0,0,5.8309,5.8314,0,0,0,0,0,0,0,0,5.765,5.7673,5.7878,5.7884,5.789,5.8029,5.7993,5.817,5.8069,5.8001,5.8061,5.8058,5.8185,5.8202,5.8245,5.8415,5.8423,5.831,5.8317,5.8321,5.8324,0,0,0,0,0,0,0,5.7638,5.7665,5.7927,5.7881,5.7888,5.7892,5.7913,5.8027,5.8108,5.8007,5.8008,5.8031,5.8188,5.8235,5.825,5.8426,5.831,5.8319,5.8326,5.833,5.8713,5.8716,0,0,0,0,0,0,5.7619,5.7654,5.7921,5.7933,5.776,5.7901,5.7924,5.7987,5.8107,5.8122,5.8034,5.8032,5.8218,5.8237,5.8257,5.8418,5.8321,5.8331,5.8338,5.8709,5.8714,5.8718,0,0,0,0,0,0,5.7611,5.7643,5.7913,5.7794,5.7829,5.791,5.7981,5.7993,5.804,5.8128,5.8142,5.8067,5.8216,5.8242,5.8369,5.8425,5.8336,5.8346,5.8705,5.8711,5.8716,5.874,0,0,0,0,0,0,5.7601,5.764,5.7691,5.7795,5.7835,5.8022,5.7984,5.7999,5.8059,5.8057,5.8163,5.8177,5.8216,5.8353,5.838,5.8438,5.8355,5.87,5.8707,5.8714,5.8734,5.8745,5.8755,0,0,0,0,0,5.7588,5.7689,5.7693,5.7725,5.79,5.8025,5.8048,5.8091,5.8063,5.8115,5.8171,5.8174,5.8414,5.8365,5.8396,5.8459,5.8697,5.8705,5.8713,5.873,5.8743,5.8754,0,0,0,0,0,0,5.7588,5.7703,5.7709,5.7847,5.7926,5.8028,5.8094,5.8104,5.8192,5.8187,5.8236,5.8259,5.8385,5.8434,5.8378,5.8591,5.8553,5.8567,5.8554,5.8568,5.8578,5.8564,5.8364,0,0,0,0,0,5.7604,5.7696,5.7792,5.7904,5.7944,5.8012,5.8068,5.8094,5.8178,5.8211,5.8277,5.8358,5.8451,5.8512,5.8603,5.8741,5.8764,5.8799,5.8809,5.8817,5.883,5.8907,5.8924,5.8745,5.8744,5.8744,0,0,5.7638,5.7712,5.7767,5.7906,5.7971,5.8065,5.804,5.814,5.8211,5.8226,5.8351,5.8402,5.8495,5.8628,5.869,5.8673,5.8884,5.8828,5.8833,5.8842,5.8917,5.8934,5.8949,5.875,5.8749,5.8748,0,0,5.7748,5.7814,5.7915,5.798,5.8079,5.8124,5.8148,5.8248,5.8283,5.8409,5.8423,5.8506,5.8667,5.8733,5.8787,5.8923,5.8929,5.8951,5.9005,5.908,5.9094,5.9107,5.9156,5.9173,5.8963,5.8963,5.8963,0,5.7778,5.7921,5.7966,5.8067,5.8127,5.8146,5.8249,5.831,5.8433,5.8474,5.8453,5.8655,5.8719,5.8869,5.8902,5.8945,5.8974,5.894,5.9088,5.9102,5.9114,5.9162,5.918,5.8965,5.8965,5.8965,5.8964,0,5.7954,5.8053,5.8123,5.8242,5.831,5.8411,5.8471,5.8534,5.8554,5.8601,5.8729,5.8806,5.8914,5.8951,5.8971,5.9104,5.909,5.9078,5.9041,5.9133,5.9179,5.9197,5.8968,5.8967,5.8967,5.8966,0,0,5.807,5.8213,5.8238,5.8293,5.8403,5.848,5.8581,5.8688,5.8742,5.8825,5.8912,5.9047,5.9038,5.9099,5.9127,5.9193,5.9296,5.9173,5.9176,5.9194,5.9448,5.9457,5.9478,5.93,5.9304,5.9307,5.9441,0,5.8194,5.8378,5.842,5.8577,5.867,5.8689,5.8778,5.8854,5.8901,5.8985,5.9035,5.9131,5.911,5.9148,5.9214,5.927,5.9348,5.926,5.9382,5.9386,5.936,5.9502,5.9512,5.9634,5.9459,5.9462,5.9464,0,5.8364,5.8453,5.8619,5.8718,5.8758,5.8837,5.8938,5.9019,5.9106,5.9135,5.9204,5.9225,5.9331,5.9288,5.9435,5.9375,5.9427,5.9462,5.9467,5.9481,5.9431,5.9521,5.9674,5.9693,5.9492,5.949,5.9488,0,5.8434,5.8595,5.8716,5.8761,5.8879,5.8934,5.8985,5.907,5.9131,5.9218,5.9259,5.9357,5.9411,5.9487,5.9534,5.9497,5.9678,5.9638,5.9705,5.9704,5.9744,5.9741,5.9909,5.9775,5.9774,5.9774,5.9773,0,5.8569,5.867,5.8749,5.8823,5.8937,5.8985,5.9096,5.9148,5.9222,5.9307,5.9328,5.9407,5.9463,5.955,5.9587,5.9704,5.9728,5.9754,5.9763,5.9754,5.975,5.9789,5.9782,5.9779,5.9778,5.9777,5.9776,0,5.8667,5.8723,5.8857,5.8957,5.8985,5.9065,5.915,5.9223,5.9269,5.9376,5.9403,5.9476,5.9579,5.9633,5.9761,5.9786,5.9918,5.9921,5.9889,5.9893,5.9958,5.9952,6.0159,6.0189,6.0033,6.0034,6.0035,0,5.875,5.8829,5.8938,5.8996,5.9049,5.9143,5.9206,5.9255,5.932,5.9425,5.9485,5.9589,5.9675,5.9838,5.9903,6.0001,6.0007,6.0073,6.0022,6.001,6.001,6.0005,6.0014,6.0082,6.0084,6.0085,6.0086,0,5.8892,5.8916,5.9006,5.9107,5.9182,5.9263,5.9343,5.9389,5.9452,5.9523,5.9629,5.9696,5.9827,5.993,6.0033,6.0085,6.0097,6.0101,6.0122,6.0114,6.0093,6.0106,5.9915,6.0097,6.0096,6.0095,6.0094,6.0094,5.8986,5.9058,5.9146,5.9246,5.9311,5.9386,5.946,5.9516,5.9605,5.9717,5.974,5.9852,5.9937,6.0077,6.0132,6.022,6.0207,6.0237,6.0245,6.0252,6.0255,6.0077,6.0239,6.0238,6.0238,6.0238,6.0238,0,5.913,5.9188,5.928,5.9392,5.9471,5.9474,5.9563,5.9628,5.9727,5.9806,5.9891,6.0012,6.0113,6.0184,6.0287,6.0343,6.0351,6.0369,6.0366,6.0378,6.0261,6.0233,6.0361,6.0361,6.0361,6.0361,6.0361,6.0361,5.9215,5.9336,5.9371,5.9525,5.9581,5.9692,5.9743,5.9812,5.9875,6.0011,6.0094,6.0141,6.0217,6.0325,6.0417,6.0435,6.0472,6.049,6.0509,6.0399,6.0386,6.0373,6.0348,6.0497,6.0497,6.0619,6.062,6.0621]}]]